TimeEDT,TemperatureF,Dew PointF,Humidity,Sea Level PressureIn,VisibilityMPH,Wind Direction,Wind SpeedMPH,Gust SpeedMPH,PrecipitationIn,Events,Conditions,WindDirDegrees,DateUTC
12:51 AM,79.0,72.0,79,30.09,10.0,SSW,6.9,-,N/A,,Clear,210,2013-09-11 04:51:00
1:51 AM,77.0,72.0,84,30.09,7.0,South,4.6,-,N/A,,Clear,190,2013-09-11 05:51:00
2:51 AM,75.9,71.1,85,30.07,6.0,South,4.6,-,N/A,,Haze,180,2013-09-11 06:51:00
3:51 AM,75.0,71.1,87,30.07,6.0,South,3.5,-,N/A,,Clear,190,2013-09-11 07:51:00
4:51 AM,75.0,71.1,87,30.06,6.0,Calm,Calm,-,N/A,,Clear,0,2013-09-11 08:51:00
5:51 AM,75.0,71.1,87,30.07,6.0,SSW,4.6,-,N/A,,Clear,200,2013-09-11 09:51:00
6:51 AM,73.9,71.1,91,30.10,4.0,South,5.8,-,N/A,,Clear,190,2013-09-11 10:51:00
7:51 AM,75.9,72.0,87,30.11,4.0,South,5.8,-,N/A,,Clear,190,2013-09-11 11:51:00
8:51 AM,79.0,72.0,79,30.11,5.0,SSW,5.8,-,N/A,,Clear,200,2013-09-11 12:51:00
9:51 AM,84.9,72.0,65,30.10,7.0,SSE,6.9,-,N/A,,Clear,160,2013-09-11 13:51:00
10:51 AM,87.1,73.9,65,30.09,7.0,SSW,4.6,-,N/A,,Clear,210,2013-09-11 14:51:00
11:51 AM,90.0,73.0,57,30.07,7.0,South,4.6,-,N/A,,Clear,180,2013-09-11 15:51:00
12:51 PM,91.9,73.9,55,30.05,7.0,South,9.2,-,N/A,,Clear,170,2013-09-11 16:51:00
1:51 PM,93.0,73.9,54,30.03,7.0,SSW,10.4,-,N/A,,Clear,200,2013-09-11 17:51:00
2:51 PM,93.9,73.0,51,30.00,8.0,South,12.7,-,N/A,,Partly Cloudy,170,2013-09-11 18:51:00
3:51 PM,95.0,73.0,49,29.98,8.0,South,12.7,17.3,N/A,,Clear,180,2013-09-11 19:51:00
4:51 PM,93.9,72.0,49,29.96,9.0,South,9.2,-,N/A,,Mostly Cloudy,180,2013-09-11 20:51:00
5:51 PM,91.9,72.0,52,29.96,10.0,SSW,10.4,-,N/A,,Scattered Clouds,200,2013-09-11 21:51:00
6:51 PM,91.0,71.1,52,29.98,9.0,SSW,10.4,-,N/A,,Clear,210,2013-09-11 22:51:00
7:51 PM,93.9,71.1,47,30.00,10.0,SW,10.4,-,N/A,,Partly Cloudy,230,2013-09-11 23:51:00
8:51 PM,93.9,70.0,46,30.01,10.0,South,10.4,-,N/A,,Clear,190,2013-09-12 00:51:00
9:51 PM,87.1,71.1,59,30.00,10.0,South,5.8,-,N/A,,Clear,190,2013-09-12 01:51:00
10:51 PM,84.0,71.1,65,30.01,9.0,NW,4.6,-,N/A,,Mostly Cloudy,320,2013-09-12 02:51:00
11:51 PM,81.0,70.0,69,29.99,10.0,Calm,Calm,-,N/A,,Clear,0,2013-09-12 03:51:00